This is the latest recevied weather packets stored in our database for station/object LA9TLA-1. If no packets are shown the sender has not sent any weather packets the latest 1 day(s).
| Time | Temp. | Humidity | Pressure | Rain* | Wind** | Luminosity | Snow |
|---|---|---|---|---|---|---|---|
| 1778081264 | 9.44° C | 13% | 1024.5 hPa | 0 mm | - | - | - |
| 1778077664 | 8.89° C | 13% | 1024.9 hPa | 0 mm | - | - | - |
| 1778074066 | 10° C | 13% | 1024.9 hPa | 0 mm | - | - | - |
| 1778066866 | 8.89° C | 13% | 1025 hPa | 0 mm | - | - | - |
| 1778063264 | 6.67° C | 13% | 1025 hPa | 0 mm | - | - | - |
| 1778061464 | 9.44° C | 13% | 1025 hPa | 0 mm | - | - | - |
| 1778059664 | 9.44° C | 13% | 1025 hPa | 0 mm | - | - | - |
| 1778057863 | 9.44° C | 13% | 1025 hPa | 0 mm | - | - | - |
| 1778052463 | 11.11° C | 13% | 1024.8 hPa | 0 mm | - | - | - |
| 1778050666 | 11.11° C | 13% | 1024.6 hPa | 0 mm | - | - | - |
| 1778048866 | 10° C | 13% | 1024.6 hPa | 0 mm | - | - | - |
| 1778047064 | 7.78° C | 16% | 1024.5 hPa | 0 mm | - | - | - |
| 1778045263 | 5° C | 45% | 1024.4 hPa | 0 mm | - | - | - |
| 1778043465 | 6.67° C | 53% | 1024.5 hPa | 0 mm | - | - | - |
| 1778041664 | 5° C | 81% | 1024.5 hPa | 0 mm | - | - | - |
| 1778039865 | 3.89° C | 69% | 1024 hPa | 0 mm | - | - | - |
| 1778038066 | 3.89° C | 53% | 1024.4 hPa | 0 mm | - | - | - |
| 1778036266 | 3.89° C | 45% | 1024.3 hPa | 0 mm | - | - | - |
| 1778034465 | 3.89° C | 49% | 1024.3 hPa | 0 mm | - | - | - |
| 1778027264 | 4.44° C | 53% | 1024.5 hPa | 0 mm | - | - | - |
| 1778011064 | 5.56° C | 10% | 1024.5 hPa | 0 mm | - | - | - |
| 1778009267 | 6.11° C | 10% | 1024.4 hPa | 0 mm | - | - | - |
| 1778002067 | 8.33° C | 10% | 1023.7 hPa | 0 mm | - | - | - |
* Rain latest hour (hover to see other rain measurements)
** Current wind speed in m/s (hover to see current wind gust speed)